Lake Clear, NY

2:50 PM EST on February 14, 2016 (GMT -0500)
Adirondack Regional

Weather History for KSLK - May, 2012

Change the Weather History Date:

Saturday, May 26, 2012

  Actual Average Record
Temperature  
Mean Temperature 62 °F 54 °F  
Max Temperature 76 °F 67 °F 85 °F (1978)
Min Temperature 47 °F 41 °F 29 °F (1956)
Degree Days  
Heating Degree Days 2 11  
Month to date heating degree days 409  
Since 1 July heating degree days 9180  
Cooling Degree Days 0 0  
Month to date cooling degree days 3 0  
Year to date cooling degree days 7 0  
Growing Degree Days 14 (Base 50)    
Moisture  
Dew Point 50 °F    
Average Humidity 62    
Maximum Humidity 93    
Minimum Humidity 31    
Precipitation  
Precipitation 0.00 in 0.14 in 0.75 in (2011)
Month to date precipitation 3.46 2.83  
Year to date precipitation 11.38 11.74  
Sea Level Pressure  
Sea Level Pressure 30.12 in    
Wind  
Wind Speed 3 mph (SW)    
Max Wind Speed 14 mph    
Max Gust Speed 20 mph    
Visibility 10 miles    
Events      
T = Trace of Precipitation, MM = Missing Value Source: NWS Daily Summary

Daily Weather History Graph

Daily Weather History Graph

Search for Another Location

Airport or City:

Trip Planner

Search our weather history database for the weather conditions in past years. The results will help you decide how hot, cold, wet, or windy it might be!

Date:

Astronomy

May. 26, 2012 Rise Set
Actual Time 5:19 AM EDT 8:29 PM EDT
Civil Twilight 4:43 AM EDT 9:04 PM EDT
Nautical Twilight 3:58 AM EDT 9:50 PM EDT
Astronomical Twilight 3:03 AM EDT 10:45 PM EDT
Moon 10:23 AM EDT (5/26) No Moon Set
Length of Visible Light 16h 20m
Length of Day
15h 10m
Waxing Crescent, 28% of the Moon is Illuminated
May 26
Waxing Crescent
May 28
First Quarter
Jun 4
Full
Jun 11
Last Quarter
Jun 19
New

Hourly Weather History & Observations

Time (EDT) Temp. Dew Point Humidity Pressure Visibility Wind Dir Wind Speed Gust Speed Precip Events Conditions
12:51 AM 64.9 °F 63.0 °F 93% 30.02 in 5.0 mi SW 4.6 mph - 0.00 in   Mostly Cloudy
1:51 AM 64.9 °F 63.0 °F 93% 30.03 in 5.0 mi WSW 5.8 mph - N/A   Mostly Cloudy
2:51 AM 64.9 °F 60.1 °F 84% 30.05 in 9.0 mi Calm Calm - 0.01 in   Mostly Cloudy
3:51 AM 60.1 °F 53.1 °F 78% 30.06 in 10.0 mi SSW 4.6 mph - N/A   Clear
4:51 AM 55.9 °F 53.1 °F 90% 30.08 in 10.0 mi WSW 3.5 mph - N/A   Clear
5:51 AM 54.0 °F 52.0 °F 93% 30.10 in 8.0 mi Calm Calm - N/A   Clear
6:51 AM 55.9 °F 53.1 °F 90% 30.12 in 10.0 mi Calm Calm - N/A   Clear
7:51 AM 57.9 °F 53.1 °F 84% 30.13 in 10.0 mi SSW 3.5 mph - N/A   Clear
8:51 AM 61.0 °F 50.0 °F 67% 30.13 in 10.0 mi SW 3.5 mph - N/A   Clear
9:51 AM 64.9 °F 50.0 °F 58% 30.14 in 10.0 mi Variable 3.5 mph - N/A   Clear
10:51 AM 68.0 °F 48.9 °F 50% 30.14 in 10.0 mi SSW 6.9 mph - N/A   Clear
11:51 AM 70.0 °F 48.9 °F 47% 30.14 in 10.0 mi SSW 6.9 mph - N/A   Clear
12:51 PM 73.9 °F 50.0 °F 43% 30.13 in 10.0 mi SW 9.2 mph 17.3 mph N/A   Clear
1:51 PM 75.0 °F 43.0 °F 32% 30.11 in 10.0 mi Variable 4.6 mph 18.4 mph N/A   Clear
2:51 PM 75.9 °F 43.0 °F 31% 30.12 in 10.0 mi Variable 5.8 mph - N/A   Clear
3:51 PM 75.0 °F 43.0 °F 32% 30.12 in 10.0 mi NW 6.9 mph - N/A   Clear
4:51 PM 75.0 °F 44.1 °F 33% 30.12 in 10.0 mi North 8.1 mph - N/A   Clear
5:51 PM 73.0 °F 45.0 °F 37% 30.12 in 10.0 mi Variable 3.5 mph - N/A   Clear
6:51 PM 71.1 °F 46.9 °F 42% 30.12 in 10.0 mi Calm Calm - N/A   Clear
7:51 PM 68.0 °F 48.0 °F 49% 30.13 in 10.0 mi Calm Calm - N/A   Clear
8:51 PM 61.0 °F 48.0 °F 62% 30.16 in 10.0 mi Calm Calm - N/A   Clear
9:51 PM 54.0 °F 48.9 °F 83% 30.19 in 10.0 mi Calm Calm - N/A   Clear
10:51 PM 52.0 °F 48.9 °F 89% 30.18 in 10.0 mi Calm Calm - N/A   Scattered Clouds
11:51 PM 50.0 °F 48.0 °F 93% 30.18 in 10.0 mi Calm Calm - N/A   Clear